Weather History for KAMW - December, 2012

Change the Weather History Date:

Sunday, December 16, 2012

  Actual Average Record
Temperature  
Mean Temperature 31 °F 22 °F  
Max Temperature 37 °F 31 °F 53 °F (2006)
Min Temperature 24 °F 14 °F -2 °F (2008)
Degree Days  
Heating Degree Days 34 43  
Month to date heating degree days 461 639  
Since 1 July heating degree days 1849 2093  
Cooling Degree Days 0 0  
Month to date cooling degree days 0 0  
Year to date cooling degree days 1067 752  
Moisture  
Dew Point 30 °F    
Average Humidity 89    
Maximum Humidity 100    
Minimum Humidity 78    
Precipitation  
Precipitation 0.00 in 0.03 in 0.48 in (1987)
Month to date precipitation 0.70 0.73  
Sea Level Pressure  
Sea Level Pressure 29.74 in    
Wind  
Wind Speed 10 mph (NW)    
Max Wind Speed 17 mph    
Max Gust Speed 22 mph    
Visibility 5 miles    
Events      
T = Trace of Precipitation, MM = Missing Value Source: NWS Daily Summary

Daily Weather History Graph

Daily Weather History Graph

Search for Another Location

Airport or City:

Trip Planner

Search our weather history database for the weather conditions in past years. The results will help you decide how hot, cold, wet, or windy it might be!

Date:

Astronomy

Dec. 16, 2012 Rise Set
Actual Time 7:36 AM CST 4:44 PM CST
Civil Twilight 7:04 AM CST 5:16 PM CST
Nautical Twilight 6:29 AM CST 5:51 PM CST
Astronomical Twilight 5:55 AM CST 6:25 PM CST
Moon 10:07 AM CST (12/16) 9:02 PM CST (12/16)
Length of Visible Light 10h 11m
Length of Day
9h 07m
Waxing Crescent, 16% of the Moon is Illuminated
Dec 16
Waxing Crescent
Dec 19
First Quarter
Dec 28
Full
Jan 4
Last Quarter
Jan 11
New

Hourly Weather History & Observations

Time (CST) Temp. Windchill Dew Point Humidity Pressure Visibility Wind Dir Wind Speed Gust Speed Precip Events Conditions
12:53 AM 37.0 °F 28.5 °F 34.0 °F 89% 29.65 in 7.0 mi WNW 13.8 mph 18.4 mph N/A   Overcast
1:53 AM 36.0 °F 27.5 °F 34.0 °F 93% 29.68 in 6.0 mi WNW 12.7 mph - N/A   Overcast
2:43 AM 35.6 °F 27.5 °F 33.8 °F 93% 29.68 in 5.0 mi WNW 11.5 mph - N/A   Overcast
2:53 AM 35.1 °F 26.4 °F 33.1 °F 92% 29.69 in 5.0 mi WNW 12.7 mph 20.7 mph N/A   Overcast
3:37 AM 35.6 °F 26.6 °F 33.8 °F 93% 29.68 in 4.0 mi WNW 13.8 mph - N/A   Overcast
3:53 AM 35.1 °F 27.9 °F 33.1 °F 92% 29.68 in 4.0 mi WNW 9.2 mph - N/A   Overcast
4:42 AM 35.6 °F 28.0 °F 33.8 °F 93% 29.69 in 3.0 mi West 10.4 mph - N/A   Overcast
4:53 AM 35.1 °F 27.4 °F 33.1 °F 92% 29.70 in 3.0 mi WNW 10.4 mph - N/A   Overcast
5:18 AM 33.8 °F 24.8 °F 33.8 °F 100% 29.69 in 2.5 mi NW 12.7 mph - N/A   Overcast
5:53 AM 34.0 °F 26.0 °F 33.1 °F 96% 29.71 in 2.5 mi WNW 10.4 mph - N/A   Overcast
6:04 AM 33.8 °F 27.0 °F 33.8 °F 100% 29.70 in 3.0 mi WNW 8.1 mph - N/A   Overcast
6:35 AM 33.8 °F 27.7 °F 33.8 °F 100% 29.71 in 2.5 mi WNW 6.9 mph - N/A   Overcast
6:53 AM 34.0 °F 28.0 °F 33.1 °F 96% 29.73 in 2.5 mi WNW 6.9 mph - N/A   Overcast
7:18 AM 33.8 °F 28.6 °F 32.0 °F 93% 29.72 in 3.0 mi West 5.8 mph - N/A   Overcast
7:53 AM 34.0 °F 28.0 °F 32.0 °F 92% 29.75 in 3.0 mi WNW 6.9 mph - N/A   Overcast
8:06 AM 33.8 °F 27.7 °F 32.0 °F 93% 29.73 in 2.0 mi WNW 6.9 mph - N/A   Overcast
8:24 AM 33.8 °F 25.8 °F 32.0 °F 93% 29.74 in 1.5 mi West 10.4 mph - N/A   Overcast
8:33 AM 33.8 °F 25.3 °F 32.0 °F 93% 29.74 in 1.5 mi WNW 11.5 mph - N/A   Overcast
8:53 AM 33.1 °F 23.9 °F 30.9 °F 92% 29.76 in 1.8 mi WNW 12.7 mph - N/A   Overcast
9:03 AM 33.8 °F 25.3 °F 30.2 °F 87% 29.74 in 2.0 mi WNW 11.5 mph - N/A   Overcast
9:26 AM 33.8 °F 26.4 °F 30.2 °F 87% 29.75 in 2.5 mi WNW 9.2 mph - N/A   Overcast
9:42 AM 33.8 °F 26.4 °F 30.2 °F 87% 29.75 in 2.5 mi WNW 9.2 mph - N/A   Overcast
9:53 AM 33.1 °F 25.5 °F 30.9 °F 92% 29.77 in 2.0 mi WNW 9.2 mph - N/A   Overcast
10:53 AM 33.1 °F 24.4 °F 30.9 °F 92% 29.78 in 2.5 mi NW 11.5 mph - N/A   Overcast
11:29 AM 33.8 °F 26.4 °F 30.2 °F 87% 29.76 in 3.0 mi NW 9.2 mph - N/A   Overcast
11:53 AM 33.1 °F 24.4 °F 30.0 °F 89% 29.76 in 4.0 mi NNW 11.5 mph - N/A   Overcast
12:25 PM 33.8 °F 25.8 °F 30.2 °F 87% 29.73 in 6.0 mi NNW 10.4 mph - N/A   Overcast
12:53 PM 33.1 °F 25.5 °F 28.9 °F 85% 29.74 in 5.0 mi North 9.2 mph - N/A   Overcast
1:53 PM 33.1 °F 24.4 °F 28.9 °F 85% 29.73 in 6.0 mi North 11.5 mph - N/A   Mostly Cloudy
2:46 PM 30.2 °F 22.6 °F 26.6 °F 86% 29.71 in 6.0 mi North 8.1 mph - N/A   Mostly Cloudy
2:53 PM 30.9 °F 22.8 °F 27.0 °F 85% 29.73 in 6.0 mi North 9.2 mph - N/A   Mostly Cloudy
4:53 PM 28.9 °F 21.1 °F 25.0 °F 85% 29.77 in 8.0 mi NW 8.1 mph - N/A   Overcast
5:53 PM 30.0 °F 21.1 °F 25.0 °F 82% 29.79 in 9.0 mi NNW 10.4 mph - N/A   Overcast
6:53 PM 30.0 °F 22.4 °F 25.0 °F 82% 29.81 in 9.0 mi NNW 8.1 mph - N/A   Overcast
7:53 PM 28.9 °F 21.1 °F 25.0 °F 85% 29.80 in 10.0 mi NNW 8.1 mph - N/A   Overcast
8:53 PM 28.0 °F 18.1 °F 24.1 °F 85% 29.82 in 10.0 mi NW 11.5 mph - N/A   Overcast
9:53 PM 27.0 °F 17.3 °F 23.0 °F 85% 29.82 in 9.0 mi North 10.4 mph - N/A   Overcast
10:53 PM 26.1 °F 16.8 °F 21.9 °F 84% 29.81 in 10.0 mi North 9.2 mph - N/A   Overcast
11:53 PM 24.1 °F 16.0 °F 21.0 °F 88% 29.81 in 10.0 mi NNW 6.9 mph - N/A   Clear